Regional Weather Roundup
Issued by NWS Northern Indiana

Home | Current Version | Previous Version | Graphics & Text | Print | Product List | Glossary On
Versions: 1 2 3 4 5 6 7 8 9 10 11 12 13 14 15 16 17 18 19 20 21 22 23 24 25 26 27 28 29 30 31 32 33 34 35 36 37 38 39 40 41 42 43 44 45 46 47 48 49 50
000
ASUS43 KIWX 220410
RWRIWX

KIWX WEATHER ROUNDUP
NATIONAL WEATHER SERVICE NORTHERN INDIANA
1100 PM EST SUN JAN 21 2018

NOTE: "FAIR" INDICATES FEW OR NO CLOUDS BELOW 12,000 FEET WITH NO
SIGNIFICANT WEATHER AND/OR OBSTRUCTIONS TO VISIBILITY.

* THESE STATIONS ARE NOT UNDER NWS QUALITY CONTROL. THEY ALSO MAY NOT
  REPORT WEATHER SUCH AS PRECIPITATION OR FOG.

INZ001>027-220500-
NORTHERN INDIANA

CITY           SKY/WX    TMP DP  RH WIND       PRES   REMARKS
GARY*          FOG       48  48 100 S7        29.89F VSB 1
VALPARAISO     FOG       46  45  96 S8        29.90F VSB 1/4
MICHIGAN CITY* CLOUDY    45  45 100 S9G16     29.90F FOG
LAPORTE*       FOG       42  42 100 S7        29.92F VSB 1/4
KNOX*          CLOUDY    45  45 100 S10       29.92F
SOUTH BEND     FOG       46  45  96 S10       29.93F VSB 3/4
GOSHEN         CLOUDY    46  46 100 S10       29.93F FOG
MONTICELLO*    FOG       44  43  95 CALM      29.92F VSB 1/4
LOGANSPORT*    FOG       45  45 100 S5        29.94F VSB 1/4
ROCHESTER*     FOG       46 N/A N/A S7        29.95S VSB 1
WARSAW*        FOG       45  45 100 CALM      29.95S VSB 1
AUBURN*        FOG      N/A N/A N/A S3        29.97S VSB 3/4
FORT WAYNE     DRZL/FOG  47  46  97 S9        29.97F VSB 1/2
HUNTINGTON*    FOG       46  45  95 S3        29.96F VSB 3/4
PERU/GRISSOM   CLOUDY    46  46 100 S8        29.93F FOG
MARION*        CLOUDY    47  47 100 S12G17    29.96S FOG

$$
INZ028>050-220500-
CENTRAL INDIANA

CITY           SKY/WX    TMP DP  RH WIND       PRES   REMARKS
LAFAYETTE      LGT RAIN  48  48 100 S3        29.92F FOG
MUNCIE*        CLOUDY    52  49  89 S10       29.96F FOG
INDIANAPOLIS   DRZL/FOG  49  49 100 SE9       29.95F VSB 3/4

$$
MIZ043>046-050>051-056>058-064>065-071>073-077>080-220500-
SOUTHWEST LOWER MICHIGAN

CITY           SKY/WX    TMP DP  RH WIND       PRES   REMARKS
BATTLE CREEK   FOG       40  39  97 SE3       29.94F VSB 1/2
BENTON HARBOR  FOG       44  42  93 SE6       29.91F VSB 1/2
COLDWATER*     FOG       42  42 100 S5        29.95F VSB 1/2
HILLSDALE*     SNOW      41  37  87 SE5       29.95F VSB 1/4
HOLLAND        FOG       38  37  97 E5        29.93F VSB 1/2
GRAND RAPIDS   LGT RAIN  37  36  96 E8        29.94F VSB 3/4
KALAMAZOO      FOG       42  41  96 SE3       29.93F VSB 1/2
STURGIS*       FOG       44  44  99 S6        29.94S VSB 1/4
THREE RIVERS*  FOG       44  44 100 S6        29.93F VSB 1/2

$$
OHZ001>008-015>018-024>025-220500-
NORTHWEST OHIO

CITY           SKY/WX    TMP DP  RH WIND       PRES   REMARKS
WAUSEON*       FOG       41  41 100 S7        29.98S VSB<1/4
DEFIANCE       CLOUDY    45  43  93 S7        29.98S FOG
FINDLAY        CLOUDY    46  43  89 S8        29.99F
TOLEDO EXPRESS CLOUDY    44  44 100 S3        29.99S FOG
TOLEDO METCALF CLOUDY    43  42  97 SE6       30.00F FOG
LIMA           CLOUDY    49  49 100 S10       29.99F

$$
AND FOR LAKE MICHIGAN COASTAL AND OPEN LAKE BUOY OBSERVATIONS

STATION/POSITION TEMP    WIND        PRES    VSBY  WAVE
                 AIR SEA DIR/SP/G                  HT/PER
                 (F)     (DEG/KT/KT) (MB)    (MI)  (FT/S)
CALUMET HARBOR    46     160/  5/  8 1011.3F
MICHIGAN CITY     45     150/ 13/ 19   N/A
BURNS HARBOR      47     170/ 11/ 19 1012.5F
SAINT JOSEPH      43      CALM  /  6 1012.9

$$
&&




USA.gov is the U.S. government's official web portal to all federal, state and local government web resources and services.